Regional Weather Roundup
Issued by NWS Sterling, VA

Home | Current Version | Previous Version | Graphics & Text | Print | Product List | Glossary On
Versions: 1 2 3 4 5 6 7 8 9 10 11 12 13 14 15 16 17 18 19 20 21 22 23 24 25 26 27 28 29 30 31 32 33 34 35 36 37 38 39 40 41 42 43 44 45 46 47 48 49 50
487
ASUS41 KLWX 311110
RWRLWX

REGIONAL WEATHER ROUNDUP
NATIONAL WEATHER SERVICE BALTIMORE MD/WASHINGTON DC
700 AM EDT TUE MAY 31 2016

Note: "FAIR" indicates few or no clouds below 12,000 feet
with no significant weather and/or obstructions to visibility.
 TC=TEMPERATURE CELSIUS

 * =Non NWS site. Station does not report precipitation (e.g. rain,
    snow, etc.), thunder, or fog.

DCZ001-MDZ009-015-VAZ040>042-051-053>054-311200-
WASHINGTON METRO

CITY           SKY/WX    TMP DP  RH WIND       PRES   REMARKS
WASHINGTON NAT PTSUNNY   72  66  81 CALM      29.96R
DULLES         CLOUDY    70  67  90 W3        29.97R FOG
ANDREWS AFB    CLOUDY    68  67  96 SE1       29.96R
FT BELVOIR     FAIR      68  66  94 CALM      29.96R
QUANTICO       FAIR      68  66  93 NW3       29.97R
COLLEGE PARK*  FAIR      70  64  83 CALM      29.96R
LEESBURG*      FAIR      72  72 100 NW3       29.98R
MANASSAS*      PTSUNNY   70  68  94 CALM      29.97R

$$

MDZ006>007-011-014-311200-
BALTIMORE METRO

CITY           SKY/WX    TMP DP  RH WIND       PRES   REMARKS
BWI AIRPORT    MOSUNNY   70  67  90 CALM      29.95R
MD SCIENCE CTR   N/A     72  67  84 MISG      29.97R
MARTIN STATE   PTSUNNY   70  70 100 CALM      29.97R
ANNAPOLIS      CLOUDY    69  67  93 SE7       29.96R
FORT MEADE*    SUNNY     64  64 100 CALM      29.99R

$$

MDZ012-015-019>023-311200-
MARYLAND EASTERN SHORE

CITY           SKY/WX    TMP DP  RH WIND       PRES   REMARKS
OCEAN CITY     CLOUDY    66  65  96 CALM      29.96R
SALISBURY      CLOUDY    67  66  97 N3        29.96R
BAY BRIDGE AP* CLOUDY    70  68  94 CALM      29.96S
CAMBRIDGE*       N/A     64  64 100 CALM      29.96S
EASTON*        PTSUNNY   68  68 100 SE3       30.00R

$$

MDZ017>025-311200-
SOUTHERN MARYLAND

CITY           SKY/WX    TMP DP  RH WIND       PRES   REMARKS
PATUXENT RIVER CLOUDY    69  66  90 N3        29.96R
ST INIGOES     CLOUDY    68  67  96 CALM      29.95S
LEONARDTOWN*   CLOUDY    66  64  94 CALM      29.98R

$$

MDZ003>005-311200-
NORTH CENTRAL MARYLAND

CITY           SKY/WX    TMP DP  RH WIND       PRES   REMARKS
FREDERICK*     PTSUNNY   70  70 100 CALM      30.00R
HAGERSTOWN APT SUNNY     66  63  90 NW6       29.99R
WESTMINSTER*   MOSUNNY   70  64  83 CALM      29.99R FOG

$$

MDZ501>502-311200-
WESTERN MARYLAND

CITY           SKY/WX    TMP DP  RH WIND       PRES   REMARKS
OAKLAND*       SUNNY     64  50  59 CALM      30.09R
CUMBERLAND*    CLOUDY    61  61 100 CALM      30.06R VSB 1

$$

VAZ025>031-311200-
SHENANDOAH VALLEY

CITY           SKY/WX    TMP DP  RH WIND       PRES   REMARKS
WINCHESTER*    FAIR      63  63 100 CALM      30.00R FOG
FRONT ROYAL*   CLOUDY    64  63  94 CALM      29.99R VSB 1/2
LURAY*         FOG       63  63 100 CALM      30.01R VSB<1/4
NEW MARKET*    CLOUDY    63  63 100 CALM      30.00R VSB<1/4
STAUNTON*      FOG       60  60 100 CALM      30.04R VSB<1/4
WAYNESBORO*    FAIR      61  60  96 CALM      30.02R

$$

WVZ021-048>050-054>055-311200-
EASTERN WEST VIRGINIA PANHANDLE

CITY           SKY/WX    TMP DP  RH WIND       PRES   REMARKS
MARTINSBURG    FOG       63  62  97 CALM      29.99R VSB<1/4
PETERSBURG*    FOG       61  61 100 CALM      30.04R VSB<1/4

$$

VAZ036>039-050-311200-
CENTRAL FOOTHILLS

CITY           SKY/WX    TMP DP  RH WIND       PRES   REMARKS
CHARLOTTESVILL FOG       65  63  93 CALM      29.98R VSB 1/4
CULPEPER*      CLOUDY    70  69  98 CALM      29.98R FOG
ORANGE*        FAIR      68  68 100 CALM      29.98S
GORDONSVILLE*  FAIR      67  67  98 W6        29.96S
WARRENTON*     FAIR      71  66  84 CALM      29.97R HAZE

$$

VAZ055>057-311200-
NORTH AND CENTRAL PIEDMONT

CITY           SKY/WX    TMP DP  RH WIND       PRES   REMARKS
FREDERICKSBRG* FOG       66  66 100 CALM      29.96R VSB 1/4
STAFFORD*      FOG       64  63  97 CALM      30.00S VSB<1/4

$$

NCZ024-NYZ072-PAZ021-071-VAZ022-071-311200-
OTHER REGIONAL OBSERVATIONS

CITY           SKY/WX    TMP DP  RH WIND       PRES   REMARKS
NEW YORK CITY  CLOUDY    72  67  84 CALM      29.97R
PHILADELPHIA   PTSUNNY   70  67  90 W6        29.96R
PITTSBURGH     MOSUNNY   62  56  80 CALM      30.01R
ROANOKE        FAIR      65  64  97 NE3       30.02S
RICHMOND       FOG       65  65 100 CALM      29.96R VSB 1/4
RALEIGH        CLOUDY    70  69  97 E5        29.96R FOG

$$

ANZ530>537-311200-
MARINE OBSERVATIONS

STATION/POSITION TIME  TEMP    WIND        PRES
                       AIR SEA DIR/SP/G
                 (UTC) (F)     (DEG/KT/KT) (MB)
THOMAS PT LIGHT  1100   69 69  180/  3/  3 1015.9R
BALT KEY BRIDGE  1000   70     150/  3/  3 1013.9R
COVE POINT       1000   67      CALM  /  2 1014.9R
LEWISETTA        1000   68 71   CALM  /  1 1013.8R
SOLOMONS ISLAND  1000   68 68  250/  2/  3   N/A
PINEY POINT      1000           20/  2/  3   N/A

$$





USA.gov is the U.S. government's official web portal to all federal, state and local government web resources and services.